Regional Weather Roundup
Issued by NWS Grand Forks, ND

Home | Current Version | Previous Version | Graphics & Text | Print | Product List | Glossary On
Versions: 1 2 3 4 5 6 7 8 9 10 11 12 13 14 15 16 17 18 19 20 21 22 23 24 25 26 27 28 29 30 31 32 33 34 35 36 37 38 39 40 41 42 43 44 45 46 47 48 49 50
000
ASUS43 KFGF 311510
RWRFGF
PRAIRIE TO PINES  WEATHER ROUNDUP
NATIONAL WEATHER SERVICE EASTERN NORTH DAKOTA/GRAND FORKS ND
1000 AM CDT TUE MAY 31 2016

 **SATELLITE DATA USED TO AUGMENT SKY COVER AT AUTOMATED STATIONS**
 *****  WEATHER ACROSS EASTERN NORTH DAKOTA  *****

CITY           SKY/WX    TMP DP  RH WIND       PRES   REMARKS
GRAND FORKS    CLOUDY    63  57  81 SW10      29.68R
GRAND FRKS AFB CLOUDY    64  57  77 SW12G18   29.68S
GRAND FRKS NWS   N/A     61 N/A N/A S14         N/A
DEVILS LAKE    CLOUDY    57  54  88 SW16      29.66S
FARGO          PTSUNNY   66  56  70 SW17      29.73S
WAHPETON ARPT  PTSUNNY   63  54  72 W20       29.79R
$$

 ***** WEATHER ACROSS CENTRAL AND WESTERN NORTH DAKOTA  *****

CITY           SKY/WX    TMP DP  RH WIND       PRES   REMARKS
BISMARCK       PTSUNNY   57  47  69 W18G24    29.74F
MINOT          MOSUNNY   59  50  72 SW15G25   29.63R
JAMESTOWN      MOSUNNY   58  49  72 W21G28    29.73R
MINOT AFB      PTSUNNY   57  50  77 SW14      29.60R
GARRISON         N/A     53  49  86 W16       29.67F
WILLISTON      RAIN      54  50  86 N25G33    29.72R FOG
DICKINSON      CLOUDY    51  46  83 W21G29    29.73F
HETTINGER      CLOUDY    50  44  80 W28G37    29.82F
$$

 *****  OTHER AIRPORT OBSERVATIONS IN OUR AREA  *****

CITY           SKY/WX    TMP DP  RH WIND       PRES   REMARKS
WALHALLA       FAIR      59  57  94 SE14      29.65S
GRAFTON AIRPOR CLOUDY    61  61 100 S13       29.69R FOG
VALLEY CITY AR CLOUDY    57  55  94 W16       29.76R
CANDO          NOT AVBL
CAVALIER APRT  CLOUDY    61  59  94 S12       29.65F
GWINNER        FAIR      63  50  63 SW18      29.79S
SHEYENNE NWR     N/A     62  54  75 W14       29.95S
ROLLA          PTSUNNY   55  55 100 E6        29.61F FOG
 ***** THE ABOVE OBSERVATIONS ARE NON NWS ARE NOT QUALITY
       CONTROLLED AND MAY MIS-REPORT RAIN FOR SNOW...
$$

  *****  WEATHER ACROSS NORTHERN MINNESOTA  *****

CITY           SKY/WX    TMP DP  RH WIND       PRES   REMARKS
FLAG ISLAND    LGT RAIN  52  48  87 E15G21    29.81F
WARROAD        RAIN      52  46  82 SE17G24   29.79F
ROSEAU         CLOUDY    54  48  82 SE15G21   29.77S
HALLOCK        CLOUDY    57  57 100 SE12      29.68F
THF RVR FALLS  CLOUDY    57  54  88 SE14      29.74R
BAUDETTE       LGT RAIN  50  47  89 E21G29    29.82S
WASKISH        LGT RAIN  50  48  93 E14G21    29.82F
CROOKSTON      CLOUDY    61  61 100 S14       29.71S
STEPHEN NDAWN    N/A     61  59  94 SE12        N/A
GREENBUSH NDAW   N/A     55  55 100 SE16        N/A
$$
  *****  WEATHER ACROSS CENTRAL AND WEST MINNESOTA  *****

CITY           SKY/WX    TMP DP  RH WIND       PRES   REMARKS
FOSSTON        LGT RAIN  57  55  94 SE10G16   29.75S
BEMIDJI        CLOUDY    53  52  96 SE13G20   29.80S
PARK RAPIDS    LGT RAIN  57  54  89 SE14G20   29.78F
ELBOW LAKE     CLOUDY    61  57  86 SW14      29.81R
WADENA         CLOUDY    61  59  94 S13       29.79S
DETROIT LAKES  CLOUDY    61  59  94 SW13      29.77F
MOORHEAD       CLOUDY    64  57  77 SW15      29.75S
FERGUS FALLS   PTSUNNY   63  57  82 W16       29.76R
MORRIS MN      CLOUDY    64  55  72 W15       29.81S
STAPLES        CLOUDY    61  59  94 SE9       29.80F
$$
  *****  WEATHER ELSEWHERE ACROSS MINNESOTA  *****

CITY           SKY/WX    TMP DP  RH WIND       PRES   REMARKS
DULUTH         CLOUDY    45  41  86 E22G31    29.94F
INTRNTL FALLS  RAIN      48  45  89 E16G28    29.90F FOG
ELY            CLOUDY    48  39  71 E12G17    29.97F
CLOQUET        LGT RAIN  45  43  93 E10G17    29.94R
WHEATON        PTSUNNY   64  57  77 W14G20    29.82S
BRAINERD       HVY RAIN  52  52 100 E9G17     29.84S FOG
HIBBING        CLOUDY    49  44  83 E17       29.89F
ALEXANDRIA     CLOUDY    62  58  86 SW13      29.82S
SAINT CLOUD    CLOUDY    64  62  93 S12       29.83F
MINNEAPOLIS    CLOUDY    66  61  84 S10       29.88R
$$

  *****  WEATHER ACROSS SOUTH DAKOTA  *****

CITY           SKY/WX    TMP DP  RH WIND       PRES   REMARKS
SIOUX FALLS    MOSUNNY   63  53  70 NW15      29.93R
BROOKINGS      MOSUNNY   61  51  70 W15       29.90R
WATERTOWN      MOSUNNY   60  49  66 W15       29.87R
HURON          SUNNY     61  44  53 W16G26    29.90S
SISSETON         N/A     64  50  60 NW18G25   29.81R
ABERDEEN       MOSUNNY   61  49  64 W16       29.84S
MITCHELL       SUNNY     64  47  53 NW15      29.94S
PIERRE         SUNNY     61  42  49 W24       29.90F
MOBRIDGE       PTSUNNY   57  44  62 W15G23    29.82S
RAPID CITY     SUNNY     60  32  34 W21G32    29.97F
$$

  *****  SOME WEATHER IN NEARBY STATES *****

CITY           SKY/WX    TMP DP  RH WIND       PRES   REMARKS
GLASGOW MT     LGT RAIN  53  50  89 NW20      29.96R
GREAT FALLS MT SUNNY     50  38  63 NW16G22   30.26R
CHEYENNE WY    CLOUDY    50  34  54 S8        30.16F
SCOTTSBLUFF NE CLOUDY    53  43  68 NW5       30.13R
OMAHA NE       CLOUDY    69  61  75 NW13      29.93R
DES MOINES IA  CLOUDY    72  60  66 S10       29.92S
DAVENPORT IA   LGT RAIN  71  61  70 SW12G17   29.98R
CHICAGO IL     PTSUNNY   76  54  46 E12       29.99F
EAU CLAIRE WI  CLOUDY    70  59  68 SE10      29.92F
LA CROSSE WI   CLOUDY    74  61  63 S15       29.93F
$$

  *****  SOME NATIONAL WEATHER *****

CITY           SKY/WX    TMP DP  RH WIND       PRES   REMARKS
LA GUARDIA NY  PTSUNNY   79  61  53 NE10G18   29.97S
RALEIGH NC     PTSUNNY   76  69  79 VRB7      29.99S
ATLANTA GA     PTSUNNY   83  64  52 E8        29.99F
NEW ORLEANS LA MOSUNNY   84  70  62 CALM      29.96S
OKLAHOMA CITY  PTSUNNY   73  63  70 NE14      29.93F
ALBUQUERQUE NM PTSUNNY   68  43  40 W9        30.04S
SALT LAKE CITY MOSUNNY   64  40  41 S5        30.09S
LOS ANGELES CA CLOUDY    61  56  83 SE3       29.90R FOG
BOISE ID       SUNNY     56  37  49 VRB3      30.13S
SEATTLE WA     MOSUNNY   60  48  64 N3        30.14S
$$

*** WEATHER ACROSS MANITOBA...SASKATCHEWAN AND ONTARIO ***
                ***ONTARIO***

CITY           SKY/WX    TMP DP  RH WIND       PRES   REMARKS
GERALDTON      MOSUNNY   52  30  43 E12       30.18S
THUNDER BAY    PTSUNNY   48  39  71 E13       30.13F
SIOUX LOOKOUT  LGT RAIN  50  39  66 E8        30.04F
TORONTO        MOSUNNY   79  46  31 NW21      29.99F
BIG TROUT LK     N/A     37  28  70 MISG      30.28F
PICKLE LAKE    PTSUNNY   52  28  40 E13G21    30.16F
DRYDEN         LGT RAIN  46  43  87 E7        30.01S FOG
KENORA         LGT RAIN  48  46  93 E17G28    29.88F FOG
$$
                *** MANITOBA***

CITY           SKY/WX    TMP DP  RH WIND       PRES   REMARKS
BRANDON        LGT RAIN  52  52 100 NE25G36   29.69F FOG
DAUPHIN        LGT RAIN  54  50  87 NE14      29.87S
ISLAND LAKE    MOSUNNY   54  37  54 E7        30.16F
PILOT MOUND      N/A     57  55  94 E12         N/A
THE PAS        PTSUNNY   55  43  62 NE8       30.08F
THOMPSON       MOSUNNY   45  34  65 E7        30.22F
WINNIPEG       LGT RAIN  54  52  94 E23G33    29.74F FOG
LYNN LAKE      CLOUDY    45  39  81 SE7       30.18F
CHURCHILL      MOSUNNY   36  27  69 S12       30.39F
GILLAM         MOSUNNY   36  28  75 E7        30.32F
$$
                ***SASKATCHEWAN***

CITY           SKY/WX    TMP DP  RH WIND       PRES   REMARKS
ESTEVAN        SHOWER    52  50  93 N28G38    29.73R
KINDERSLEY     CLOUDY    54  48  82 N10       30.11R
LLOYDMINSTER   CLOUDY    52  48  87 N12G18    30.14S
PRINCE ALBERT  CLOUDY    54  46  76 E12       30.07S
REGINA         CLOUDY    52  50  93 N16G22    29.93R
YORKTON        CLOUDY    52  48  87 N16       29.90S
N. BATTLEFORD  CLOUDY    57  48  72 NW9       30.11S
LA RONGE       PTSUNNY   54  50  87 SE6       30.12S
SASKATOON      PTSUNNY   55  50  82 N13G20    30.07S
SWIFT CURRENT  PTSUNNY   55  50  82 N18G24    30.05S
$$
NOTE: THESE ARE AUTOMATED STATIONS WITH LIMITED QUALITY CONTROL
      "FAIR" INDICATES FEW OR NO CLOUDS BELOW 12,000 FEET WITH NO
      SIGNIFICANT WEATHER AND/OR OBSTRUCTIONS TO VISIBILITY.
      SKY/WX - SKY CONDITION AND SIGNIFICANT WEATHER.
      TMP - AIR TEMPERATURE.    DP   - DEWPOINT TEMPERATURE.
      RH  - RELATIVE HUMIDITY.  PRES - PRESSURE.
      HX  - HEAT INDEX.         WCI  - WIND CHILL INDEX.
$



USA.gov is the U.S. government's official web portal to all federal, state and local government web resources and services.